• Join FlightAware (Why Join?)
  • Login
  • US Flag 
03:05PM EST


 

Airport Tracker/Info


-or-


 

Live Flight TrackerFlight Track Log ✈ N1732M ✈ 07-Oct-2013 ✈ KMLB - KMLB

Flight Track Log - Related Links

Times and Time Zones

All times are in EDT time to prevent confusion due to time zone crossing. See the N1732M flight status page for this flight to view local times or setup timezone preferences in your user account.

Time Position Orientation Groundspeed Altitude Reporting Facility
EDT Latitude Longitude Course Direction KTS MPH feet Rate Location/Type
11:14AM 28.1000 -80.6500 270° West 79 91 400  Level Orlando TRACON
11:15AM 28.1000 -80.6833 270° West 91 105 900 550 Climbing Orlando TRACON
11:16AM 28.1000 -80.7167 270° West 101 116 1,400 389 Climbing Orlando TRACON
11:17AM 28.1000 -80.7333 270° West 110 127 1,600 105 Climbing Orlando TRACON
11:18AM 28.1167 -80.7833 291° West 118 136 1,600 136 Level Orlando TRACON
11:19AM 28.1000 -80.8000 221° Southwest 92 106 1,900 200 Climbing Orlando TRACON
11:20AM 28.0667 -80.8000 180° South 95 109 2,000 150 Climbing Orlando TRACON
11:21AM 28.0333 -80.7833 156° South 97 112 2,200 100 Climbing Orlando TRACON
11:22AM 28.0500 -80.7667 41° Northeast 124 143 2,200 -150 Level Orlando TRACON
11:23AM 28.0667 -80.7333 60° Northeast 139 160 1,900 -333 Descending Orlando TRACON
11:24AM 28.0667 -80.6833 90° East 125 144 1,500 -331 Descending Orlando TRACON
11:25AM 28.0833 -80.6500 60° Northeast 102 117 1,200 -381 Descending Orlando TRACON
11:26AM 28.1000 -80.6333 41° Northeast 105 121 700 -462 Descending Orlando TRACON
11:28AM 28.1028 -80.6453 270° West  Level Estimated
11:35AM 28.1028 -80.6453 270° West  Level Estimated
11:36AM 28.1028 -80.6453 270° West  Level Estimated
11:37AM 28.1028 -80.6453 270° West  Level Estimated
11:38AM 28.1028 -80.6453 270° West  Level Estimated
11:39AM 28.1028 -80.6453 270° West  Level Estimated
11:40AM 28.1028 -80.6453 270° West  Level Estimated
11:41AM 28.1028 -80.6453 270° West  Level Estimated
11:42AM 28.1028 -80.6453 270° West  Level Estimated